Total_Precipitation_Accumulation
0.60 0.29 0.27 0.24 0.21 0.23 0.23 0.25 0.28 0.27 0.25 0.23 0.20 0.17 0.15 0.17 0.17 0.16 0.16 0.18 0.24 0.36 0.45 0.48 0.50 0.54 0.57 0.58 0.52 0.46 0.43 0.38 0.37 0.37 0.42 0.46 0.56 0.67 0.69 0.63 0.72 0.72 0.64
0.46 0.29 0.31 0.24 0.23 0.22 0.23 0.27 0.30 0.29 0.29 0.27 0.23 0.20 0.18 0.17 0.18 0.21 0.21 0.23 0.32 0.38 0.40 0.44 0.46 0.46 0.44 0.42 0.38 0.35 0.31 0.34 0.40 0.48 0.57 0.62 0.78 0.93 0.97 0.87 1.00 1.02 0.66
0.32 0.26 0.31 0.25 0.23 0.23 0.23 0.27 0.32 0.32 0.31 0.28 0.28 0.25 0.23 0.23 0.23 0.25 0.25 0.30 0.39 0.42 0.40 0.40 0.42 0.38 0.36 0.31 0.29 0.29 0.32 0.37 0.55 0.72 1.07 1.24 1.18 1.17 1.06 0.96 0.90 0.78 0.61
0.33 0.38 0.37 0.27 0.27 0.27 0.26 0.29 0.31 0.33 0.35 0.35 0.35 0.29 0.25 0.25 0.27 0.27 0.27 0.32 0.40 0.50 0.46 0.38 0.35 0.32 0.30 0.28 0.29 0.31 0.37 0.46 0.75 1.07 1.62 1.61 1.70 1.68 1.29 1.05 0.94 0.80 0.73
0.43 0.54 0.47 0.34 0.30 0.30 0.35 0.33 0.33 0.35 0.37 0.41 0.40 0.35 0.30 0.26 0.26 0.30 0.35 0.41 0.46 0.54 0.70 0.57 0.44 0.36 0.31 0.31 0.32 0.37 0.44 0.56 0.88 1.26 1.74 2.07 2.37 2.24 1.54 1.17 1.03 0.96 0.92
0.47 0.50 0.45 0.39 0.34 0.34 0.39 0.38 0.41 0.44 0.44 0.41 0.42 0.42 0.40 0.33 0.33 0.38 0.46 0.51 0.52 0.52 0.66 0.78 0.61 0.51 0.42 0.36 0.36 0.40 0.51 0.72 0.89 1.22 1.91 2.37 2.42 2.22 1.64 1.33 1.15 1.16 1.18
0.53 0.50 0.53 0.54 0.51 0.51 0.48 0.46 0.50 0.51 0.51 0.50 0.47 0.48 0.50 0.42 0.40 0.48 0.57 0.60 0.61 0.63 0.67 0.65 0.56 0.51 0.47 0.42 0.42 0.47 0.59 0.78 0.90 1.35 1.89 2.35 2.33 2.13 1.79 1.58 1.41 1.34 1.28
0.62 0.59 0.65 0.71 0.70 0.67 0.60 0.59 0.59 0.53 0.52 0.53 0.53 0.54 0.54 0.49 0.49 0.55 0.63 0.71 0.80 0.78 0.73 0.67 0.60 0.53 0.51 0.50 0.49 0.52 0.64 0.75 0.78 1.21 1.69 1.99 1.95 1.83 1.84 1.69 1.58 1.45 1.35
0.94 0.93 0.82 0.76 0.73 0.74 0.70 0.67 0.69 0.66 0.63 0.60 0.58 0.57 0.58 0.58 0.57 0.66 0.78 0.85 0.85 0.77 0.74 0.71 0.68 0.64 0.58 0.52 0.53 0.58 0.68 0.80 0.89 1.13 1.44 1.80 1.72 1.87 1.99 1.77 1.54 1.51 1.51
1.60 1.86 1.37 1.00 0.87 0.80 0.78 0.78 0.81 0.85 0.84 0.77 0.71 0.66 0.66 0.70 0.74 0.83 0.85 0.88 0.88 0.81 0.77 0.80 0.79 0.72 0.66 0.59 0.55 0.59 0.72 0.76 0.70 1.02 1.51 1.67 1.69 1.99 2.30 2.13 1.80 1.62 1.55
1.94 2.22 1.67 1.32 1.17 1.10 1.09 1.06 1.04 1.06 1.04 0.97 0.91 0.87 0.89 0.98 1.17 1.22 1.03 1.08 0.99 0.93 0.90 0.89 0.86 0.82 0.80 0.76 0.77 0.76 0.76 0.73 1.01 1.29 1.56 1.73 1.91 2.21 2.44 2.38 2.08 1.82 1.69
2.04 1.89 1.80 1.74 1.52 1.39 1.36 1.45 1.44 1.30 1.30 1.19 1.32 1.21 1.29 1.66 1.75 1.51 1.47 1.42 1.30 1.19 1.12 1.10 1.13 1.07 1.00 0.96 1.08 1.09 0.88 0.92 1.21 1.53 1.72 1.78 2.02 2.43 2.65 2.47 2.22 2.12 2.02
2.72 2.25 2.05 1.95 1.87 1.75 1.85 1.98 1.99 1.93 1.88 1.67 1.76 1.69 1.78 1.92 1.87 1.85 1.86 1.72 1.67 1.57 1.59 1.60 1.48 1.31 1.21 1.27 1.36 1.34 1.22 1.23 1.29 1.53 1.74 1.91 2.14 2.54 2.79 2.64 2.35 2.28 2.29
2.97 2.82 2.35 2.23 2.36 2.56 2.60 2.46 2.31 2.28 2.28 2.18 2.21 2.03 2.15 2.27 2.28 2.18 2.22 2.09 2.14 2.06 2.10 1.98 1.86 1.77 1.65 1.50 1.46 1.53 1.58 1.54 1.47 1.60 1.95 2.05 2.10 2.39 2.78 2.81 2.61 2.50 2.49
2.92 2.75 2.59 2.77 2.89 2.97 2.94 2.84 2.62 2.58 2.78 2.75 2.71 2.58 2.58 2.51 2.41 2.38 2.34 2.37 2.27 2.36 2.42 2.38 2.13 1.97 1.89 1.74 1.58 1.60 1.70 1.70 1.77 1.84 2.03 2.09 1.99 2.19 2.65 3.03 3.05 3.07 3.02
2.84 2.95 2.93 3.17 3.11 3.02 3.04 3.15 3.11 2.89 3.07 3.29 3.40 3.25 3.00 2.87 2.80 2.76 2.84 2.83 2.57 2.54 2.62 2.70 2.57 2.37 2.09 1.91 1.73 1.70 1.72 1.70 1.77 1.92 2.08 2.19 2.13 2.09 2.48 2.98 3.25 3.43 3.44
3.04 3.09 3.23 3.13 3.32 3.44 3.45 3.38 3.28 3.18 3.25 3.42 3.57 3.63 3.30 3.05 3.15 3.11 3.23 3.22 2.87 2.76 2.87 2.95 2.93 2.82 2.40 2.12 2.01 1.99 1.94 1.97 1.90 1.98 2.19 2.30 2.25 2.22 2.42 2.59 2.84 3.09 3.29
3.14 3.48 3.48 3.09 3.46 3.63 3.62 3.54 3.34 3.41 3.65 3.80 3.78 3.86 3.64 3.28 3.19 3.27 3.18 3.02 2.95 2.99 3.22 3.41 3.35 3.25 2.98 2.70 2.47 2.19 2.01 2.00 1.97 2.13 2.21 2.29 2.57 2.50 2.44 2.28 2.39 2.64 2.93
3.49 3.90 3.66 3.37 3.51 3.62 3.69 3.76 3.53 3.62 3.93 4.09 4.13 3.99 3.63 3.31 3.28 3.45 3.46 3.39 3.30 3.34 3.40 3.29 3.46 3.29 3.35 3.13 2.66 2.41 2.19 2.10 2.14 2.19 2.28 2.30 2.45 2.58 2.54 2.32 2.27 2.42 2.58
3.76 4.37 3.95 3.54 3.50 3.74 3.71 3.61 3.64 3.79 4.09 4.34 4.31 4.08 3.82 3.69 3.58 3.71 3.66 3.71 3.76 3.82 3.65 3.56 3.58 3.35 3.20 3.11 2.72 2.52 2.37 2.20 2.17 2.14 2.10 2.15 2.26 2.23 2.30 2.29 2.34 2.21 2.32
3.63 4.06 4.06 3.83 3.86 3.87 3.88 3.71 3.91 4.13 4.40 4.65 4.55 4.44 4.33 4.25 4.20 4.20 4.22 4.20 4.05 3.95 3.80 3.63 3.53 3.41 3.16 2.96 2.90 2.58 2.20 1.93 1.83 1.79 1.84 1.92 1.91 1.92 2.04 2.23 2.35 2.30 2.14
3.31 3.51 3.82 3.95 3.99 3.76 4.07 4.36 4.62 4.96 5.01 5.29 5.55 5.60 5.41 5.14 4.90 4.67 4.65 4.42 4.11 3.93 3.79 3.59 3.45 3.28 2.99 2.86 2.82 2.81 2.37 2.00 1.66 1.46 1.55 1.56 1.63 1.79 1.89 1.86 1.95 1.99 1.92
3.14 3.42 3.73 4.03 4.14 4.06 4.52 5.03 5.47 5.84 5.79 5.81 5.82 5.81 5.73 5.30 4.92 4.68 4.44 4.28 4.10 3.92 3.74 3.63 3.49 3.35 3.08 2.88 2.78 2.95 2.78 2.40 1.94 1.70 1.55 1.55 1.63 1.72 1.72 1.68 1.68 1.69 1.72
2.93 3.22 3.47 3.83 4.22 4.52 4.95 5.45 6.01 6.35 6.55 6.38 6.02 5.74 5.35 4.92 4.54 4.14 3.95 3.98 3.84 3.64 3.42 3.16 3.03 2.99 2.92 2.78 2.71 2.62 2.61 2.53 2.34 2.04 1.80 1.80 1.84 1.82 1.74 1.69 1.77 1.85 1.85
2.71 3.00 3.30 3.63 4.02 4.66 5.44 6.02 6.44 6.79 6.78 6.26 5.72 5.14 4.67 4.32 4.01 3.71 3.53 3.59 3.48 3.24 3.03 2.77 2.55 2.45 2.42 2.47 2.50 2.47 2.42 2.37 2.21 2.09 1.92 1.83 1.82 1.78 1.72 1.70 1.75 1.84 1.86
2.49 2.76 3.12 3.54 3.87 4.40 5.15 5.79 6.07 6.27 6.21 5.76 5.13 4.59 4.18 3.76 3.40 3.07 2.79 2.70 2.63 2.47 2.36 2.31 2.23 2.18 2.15 2.21 2.24 2.18 2.17 2.18 2.14 2.14 2.04 1.85 1.83 1.89 1.79 1.68 1.59 1.56 1.61